Station Historical Data
 
Daily Summary for May 28, 2017 Units:  English    Metric   Both
« Previous Day
Next Day »
Daily Weekly Monthly Yearly Custom
  Current: High: Low: Average:
Temperature: 75.2 °F 77.3 °F 55.6 °F 65.3 °F
Dew Point: 57.4 °F 60.0 °F 46.1 °F 53.4 °F
Humidity: 54 % 85 % 49 % 67 %
Wind Speed: 0.0 mph 11.0 mph 0.0 mph 0.9 mph
Wind Gust: 0.0 mph 14.0 mph - -
Wind:Calm - - SSW
Pressure: 29.97 in 30.07 in 29.97 in -
Precipitation: 0.00 in      
Historical Graphs
 
 
Tabular Data for May 28, 2017
Time Temperature Dew Point Pressure Wind Wind Speed Wind Gust Humidity Rainfall Rate (Hourly) solar
00:02 57.8 °F 51.0 °F 30.07 in Calm     78 % 0.00 in 0.00 W/m2
00:07 57.8 °F 51.0 °F 30.07 in Calm     78 % 0.00 in 0.00 W/m2
00:12 57.7 °F 50.9 °F 30.07 in Calm     78 % 0.00 in 0.00 W/m2
00:17 57.6 °F 51.1 °F 30.07 in Calm     79 % 0.00 in 0.00 W/m2
00:22 57.4 °F 51.0 °F 30.07 in Calm     79 % 0.00 in 0.00 W/m2
00:27 57.3 °F 51.2 °F 30.07 in Calm     80 % 0.00 in 0.00 W/m2
00:32 57.3 °F 51.2 °F 30.07 in Calm     80 % 0.00 in 0.00 W/m2
00:37 57.2 °F 51.1 °F 30.07 in Calm     80 % 0.00 in 0.00 W/m2
00:42 57.2 °F 51.1 °F 30.07 in Calm     80 % 0.00 in 0.00 W/m2
00:47 57.1 °F 51.0 °F 30.07 in Calm     80 % 0.00 in 0.00 W/m2
00:52 57.0 °F 50.9 °F 30.07 in Calm     80 % 0.00 in 0.00 W/m2
00:57 56.9 °F 50.8 °F 30.06 in Calm     80 % 0.00 in 0.00 W/m2
01:02 56.9 °F 50.8 °F 30.07 in Calm     80 % 0.00 in 0.00 W/m2
01:12 56.8 °F 50.7 °F 30.07 in Calm     80 % 0.00 in 0.00 W/m2
01:17 56.7 °F 50.6 °F 30.07 in Calm     80 % 0.00 in 0.00 W/m2
01:22 56.7 °F 50.9 °F 30.07 in Calm     81 % 0.00 in 0.00 W/m2
01:27 56.6 °F 50.8 °F 30.07 in Calm     81 % 0.00 in 0.00 W/m2
01:32 56.6 °F 50.8 °F 30.07 in Calm     81 % 0.00 in 0.00 W/m2
01:38 56.5 °F 50.8 °F 30.07 in Calm     81 % 0.00 in 0.00 W/m2
01:43 56.4 °F 50.7 °F 30.07 in Calm     81 % 0.00 in 0.00 W/m2
01:48 56.3 °F 50.5 °F 30.07 in Calm     81 % 0.00 in 0.00 W/m2
01:53 56.2 °F 50.5 °F 30.07 in Calm     81 % 0.00 in 0.00 W/m2
01:58 56.2 °F 50.5 °F 30.07 in Calm     81 % 0.00 in 0.00 W/m2
02:03 56.1 °F 50.4 °F 30.07 in Calm     81 % 0.00 in 0.00 W/m2
02:08 56.0 °F 50.3 °F 30.07 in Calm     81 % 0.00 in 0.00 W/m2
02:13 56.0 °F 50.3 °F 30.07 in Calm     81 % 0.00 in 0.00 W/m2
02:18 55.9 °F 50.2 °F 30.07 in Calm     81 % 0.00 in 0.00 W/m2
02:23 55.8 °F 50.4 °F 30.07 in Calm     82 % 0.00 in 0.00 W/m2
02:28 55.8 °F 50.4 °F 30.07 in Calm     82 % 0.00 in 0.00 W/m2
02:33 55.7 °F 50.3 °F 30.07 in Calm     82 % 0.00 in 0.00 W/m2
02:38 55.7 °F 50.3 °F 30.07 in Calm     82 % 0.00 in 0.00 W/m2
02:43 55.7 °F 50.3 °F 30.07 in Calm     82 % 0.00 in 0.00 W/m2
02:48 55.6 °F 50.2 °F 30.06 in Calm     82 % 0.00 in 0.00 W/m2
02:53 55.6 °F 50.5 °F 30.06 in Calm     83 % 0.00 in 0.00 W/m2
02:58 55.7 °F 50.6 °F 30.06 in Calm     83 % 0.00 in 0.00 W/m2
03:03 55.7 °F 50.6 °F 30.06 in Calm     83 % 0.00 in 0.00 W/m2
03:08 55.7 °F 50.6 °F 30.06 in Calm     83 % 0.00 in 0.00 W/m2
03:13 55.8 °F 50.7 °F 30.06 in Calm     83 % 0.00 in 0.00 W/m2
03:18 55.8 °F 50.7 °F 30.06 in Calm     83 % 0.00 in 0.00 W/m2
03:23 55.8 °F 51.0 °F 30.06 in Calm     84 % 0.00 in 0.00 W/m2
03:28 55.8 °F 51.0 °F 30.06 in Calm     84 % 0.00 in 0.00 W/m2
03:33 55.9 °F 51.1 °F 30.05 in Calm     84 % 0.00 in 0.00 W/m2
03:38 55.9 °F 51.1 °F 30.05 in Calm     84 % 0.00 in 0.00 W/m2
03:43 55.9 °F 51.5 °F 30.05 in Calm     85 % 0.00 in 0.00 W/m2
03:48 55.9 °F 51.5 °F 30.05 in Calm     85 % 0.00 in 0.00 W/m2
03:53 56.0 °F 51.6 °F 30.05 in Calm     85 % 0.00 in 0.00 W/m2
03:58 56.0 °F 51.6 °F 30.05 in Calm   4.0 mph 85 % 0.00 in 0.00 W/m2
04:03 56.0 °F 51.2 °F 30.05 in Calm   4.0 mph 84 % 0.00 in 0.00 W/m2
04:08 56.1 °F 51.3 °F 30.05 in Calm     84 % 0.00 in 0.00 W/m2
04:13 56.1 °F 51.3 °F 30.05 in WSW 2.0 mph 4.0 mph 84 % 0.00 in 0.00 W/m2
04:18 56.0 °F 50.9 °F 30.05 in Calm   4.0 mph 83 % 0.00 in 0.00 W/m2
04:24 56.0 °F 50.6 °F 30.05 in Calm   5.0 mph 82 % 0.00 in 0.00 W/m2
04:29 56.0 °F 50.3 °F 30.05 in ESE 5.0 mph 8.0 mph 81 % 0.00 in 0.00 W/m2
04:34 55.9 °F 50.2 °F 30.05 in Calm   8.0 mph 81 % 0.00 in 0.00 W/m2
04:39 55.9 °F 50.2 °F 30.05 in East 4.0 mph 8.0 mph 81 % 0.00 in 0.00 W/m2
04:44 55.8 °F 49.7 °F 30.05 in Calm   7.0 mph 80 % 0.00 in 0.00 W/m2
04:49 55.8 °F 49.7 °F 30.05 in East 7.0 mph 8.0 mph 80 % 0.00 in 0.00 W/m2
04:54 55.8 °F 49.0 °F 30.04 in Calm   7.0 mph 78 % 0.00 in 0.00 W/m2
04:59 55.8 °F 48.7 °F 30.05 in Calm   9.0 mph 77 % 0.00 in 0.00 W/m2
05:04 55.8 °F 48.0 °F 30.05 in East 2.0 mph 8.0 mph 75 % 0.00 in 0.00 W/m2
05:09 55.9 °F 47.7 °F 30.05 in East 2.0 mph 9.0 mph 74 % 0.00 in 0.00 W/m2
05:14 55.9 °F 47.4 °F 30.05 in East 4.0 mph 11.0 mph 73 % 0.00 in 0.00 W/m2
05:19 56.0 °F 47.1 °F 30.05 in ESE 5.0 mph 11.0 mph 72 % 0.00 in 0.00 W/m2
05:24 56.0 °F 46.7 °F 30.05 in East 5.0 mph 8.0 mph 71 % 0.00 in 0.00 W/m2
05:29 56.1 °F 46.5 °F 30.05 in ESE 7.0 mph 9.0 mph 70 % 0.00 in 0.00 W/m2
05:34 56.2 °F 46.6 °F 30.05 in Calm   7.0 mph 70 % 0.00 in 0.00 W/m2
05:39 56.2 °F 46.6 °F 30.05 in ESE 11.0 mph 11.0 mph 70 % 0.00 in 0.00 W/m2
05:44 56.3 °F 46.7 °F 30.05 in ESE 2.0 mph 9.0 mph 70 % 0.00 in 5.00 W/m2
05:49 56.4 °F 47.1 °F 30.05 in ESE 1.0 mph 7.0 mph 71 % 0.00 in 9.00 W/m2
05:54 56.4 °F 47.5 °F 30.05 in Calm   7.0 mph 72 % 0.00 in 11.00 W/m2
05:59 56.5 °F 47.2 °F 30.05 in Calm   7.0 mph 71 % 0.00 in 14.00 W/m2
06:04 56.5 °F 46.8 °F 30.05 in Calm   8.0 mph 70 % 0.00 in 16.00 W/m2
06:09 56.5 °F 46.5 °F 30.05 in Calm   8.0 mph 69 % 0.00 in 21.00 W/m2
06:14 56.5 °F 46.5 °F 30.05 in Calm   6.0 mph 69 % 0.00 in 26.00 W/m2
06:19 56.5 °F 46.5 °F 30.06 in Calm   6.0 mph 69 % 0.00 in 35.00 W/m2
06:24 56.5 °F 46.1 °F 30.06 in East 6.0 mph 8.0 mph 68 % 0.00 in 46.00 W/m2
06:29 56.5 °F 46.5 °F 30.06 in Calm   7.0 mph 69 % 0.00 in 60.00 W/m2
06:34 56.5 °F 46.5 °F 30.06 in Calm   8.0 mph 69 % 0.00 in 74.00 W/m2
06:39 56.5 °F 46.5 °F 30.06 in Calm   2.0 mph 69 % 0.00 in 84.00 W/m2
06:44 56.5 °F 46.5 °F 30.06 in Calm   4.0 mph 69 % 0.00 in 104.00 W/m2
06:49 56.5 °F 46.5 °F 30.06 in ESE 6.0 mph 7.0 mph 69 % 0.00 in 121.00 W/m2
06:54 56.5 °F 46.5 °F 30.06 in East 7.0 mph 7.0 mph 69 % 0.00 in 141.00 W/m2
06:59 56.5 °F 46.5 °F 30.06 in Calm   5.0 mph 69 % 0.00 in 158.00 W/m2
07:04 56.5 °F 46.5 °F 30.06 in Calm   5.0 mph 69 % 0.00 in 176.00 W/m2
07:09 56.6 °F 46.6 °F 30.06 in Calm   8.0 mph 69 % 0.00 in 197.00 W/m2
07:14 56.6 °F 47.3 °F 30.06 in Calm   8.0 mph 71 % 0.00 in 214.00 W/m2
07:19 56.7 °F 47.8 °F 30.06 in Calm   14.0 mph 72 % 0.00 in 237.00 W/m2
07:24 56.8 °F 47.9 °F 30.07 in East 5.0 mph 8.0 mph 72 % 0.00 in 255.00 W/m2
07:29 56.8 °F 47.9 °F 30.06 in Calm   5.0 mph 72 % 0.00 in 276.00 W/m2
07:34 56.9 °F 48.0 °F 30.06 in Calm   1.0 mph 72 % 0.00 in 294.00 W/m2
07:39 57.1 °F 48.5 °F 30.06 in Calm   6.0 mph 73 % 0.00 in 309.00 W/m2
07:45 57.3 °F 49.1 °F 30.06 in Calm   7.0 mph 74 % 0.00 in 323.00 W/m2
07:50 57.5 °F 49.3 °F 30.06 in East 4.0 mph 7.0 mph 74 % 0.00 in 341.00 W/m2
07:55 57.6 °F 49.4 °F 30.06 in Calm   5.0 mph 74 % 0.00 in 359.00 W/m2
08:00 57.8 °F 49.2 °F 30.06 in East 3.0 mph 6.0 mph 73 % 0.00 in 374.00 W/m2
08:05 58.2 °F 50.3 °F 30.06 in Calm   6.0 mph 75 % 0.00 in 394.00 W/m2
08:08 58.4 °F 50.5 °F 30.06 in East 3.0 mph 4.0 mph 75 % 0.00 in 403.00 W/m2
08:13 58.6 °F 50.7 °F 30.06 in Calm     75 % 0.00 in 420.00 W/m2
08:18 58.8 °F 51.3 °F 30.06 in East 2.0 mph 4.0 mph 76 % 0.00 in 438.00 W/m2
08:23 59.1 °F 51.2 °F 30.06 in Calm     75 % 0.00 in 454.00 W/m2
08:28 59.3 °F 51.8 °F 30.06 in Calm     76 % 0.00 in 469.00 W/m2
08:34 59.5 °F 51.9 °F 30.06 in Calm     76 % 0.00 in 485.00 W/m2
08:39 59.7 °F 52.1 °F 30.07 in Calm     76 % 0.00 in 501.00 W/m2
08:44 59.9 °F 52.3 °F 30.07 in Calm     76 % 0.00 in 517.00 W/m2
08:49 60.1 °F 52.2 °F 30.07 in Calm     75 % 0.00 in 533.00 W/m2
08:54 60.6 °F 53.0 °F 30.07 in Calm     76 % 0.00 in 545.00 W/m2
08:59 61.1 °F 52.4 °F 30.07 in Calm   2.0 mph 73 % 0.00 in 561.00 W/m2
09:04 61.7 °F 52.6 °F 30.06 in Calm     72 % 0.00 in 577.00 W/m2
09:09 62.3 °F 52.8 °F 30.06 in Calm   1.0 mph 71 % 0.00 in 591.00 W/m2
09:14 62.9 °F 53.0 °F 30.06 in Calm   2.0 mph 70 % 0.00 in 605.00 W/m2
09:19 63.4 °F 53.1 °F 30.06 in Calm   1.0 mph 69 % 0.00 in 621.00 W/m2
09:24 63.9 °F 53.1 °F 30.06 in Calm     68 % 0.00 in 635.00 W/m2
09:29 64.2 °F 53.0 °F 30.06 in ENE 1.0 mph 3.0 mph 67 % 0.00 in 649.00 W/m2
09:34 64.6 °F 53.4 °F 30.06 in Calm     67 % 0.00 in 663.00 W/m2
09:39 64.9 °F 53.7 °F 30.06 in Calm     67 % 0.00 in 675.00 W/m2
09:44 65.0 °F 53.4 °F 30.06 in Calm     66 % 0.00 in 687.00 W/m2
09:49 65.4 °F 54.2 °F 30.06 in Calm   1.0 mph 67 % 0.00 in 701.00 W/m2
09:54 65.7 °F 53.6 °F 30.06 in ENE 3.0 mph 3.0 mph 65 % 0.00 in 714.00 W/m2
09:59 66.0 °F 53.9 °F 30.06 in Calm   2.0 mph 65 % 0.00 in 728.00 W/m2
10:04 66.3 °F 53.8 °F 30.06 in NE 1.0 mph 1.0 mph 64 % 0.00 in 740.00 W/m2
10:09 66.5 °F 53.5 °F 30.06 in Calm   1.0 mph 63 % 0.00 in 752.00 W/m2
10:14 66.8 °F 53.8 °F 30.06 in Calm   3.0 mph 63 % 0.00 in 761.00 W/m2
10:19 67.0 °F 54.4 °F 30.06 in Calm   2.0 mph 64 % 0.00 in 770.00 W/m2
10:24 67.3 °F 54.7 °F 30.06 in Calm   2.0 mph 64 % 0.00 in 784.00 W/m2
10:29 67.5 °F 54.5 °F 30.06 in Calm   3.0 mph 63 % 0.00 in 793.00 W/m2
10:34 67.8 °F 55.2 °F 30.06 in Calm   5.0 mph 64 % 0.00 in 807.00 W/m2
10:39 68.1 °F 55.9 °F 30.05 in Calm   3.0 mph 65 % 0.00 in 817.00 W/m2
10:44 68.4 °F 55.8 °F 30.06 in Calm   5.0 mph 64 % 0.00 in 826.00 W/m2
10:49 68.6 °F 56.0 °F 30.05 in Calm     64 % 0.00 in 837.00 W/m2
10:54 68.8 °F 55.7 °F 30.06 in Calm   1.0 mph 63 % 0.00 in 844.00 W/m2
10:59 69.1 °F 56.0 °F 30.06 in Calm   3.0 mph 63 % 0.00 in 854.00 W/m2
11:04 69.3 °F 56.2 °F 30.06 in NNW 4.0 mph 5.0 mph 63 % 0.00 in 863.00 W/m2
11:09 69.5 °F 55.5 °F 30.06 in NNW 1.0 mph 5.0 mph 61 % 0.00 in 870.00 W/m2
11:14 69.8 °F 56.2 °F 30.06 in Calm   5.0 mph 62 % 0.00 in 879.00 W/m2
11:19 70.0 °F 56.4 °F 30.06 in Calm   1.0 mph 62 % 0.00 in 886.00 W/m2
11:24 70.3 °F 56.7 °F 30.05 in NNW 3.0 mph 3.0 mph 62 % 0.00 in 895.00 W/m2
11:29 70.5 °F 56.0 °F 30.05 in Calm     60 % 0.00 in 900.00 W/m2
11:34 70.8 °F 56.2 °F 30.05 in Calm   3.0 mph 60 % 0.00 in 907.00 W/m2
11:39 71.1 °F 57.0 °F 30.05 in Calm   4.0 mph 61 % 0.00 in 911.00 W/m2
11:44 71.5 °F 56.9 °F 30.05 in Calm   2.0 mph 60 % 0.00 in 918.00 W/m2
11:49 71.8 °F 56.7 °F 30.05 in Calm   5.0 mph 59 % 0.00 in 923.00 W/m2
11:54 72.0 °F 56.4 °F 30.05 in Calm   5.0 mph 58 % 0.00 in 928.00 W/m2
12:00 72.2 °F 57.1 °F 30.05 in Calm   3.0 mph 59 % 0.00 in 932.00 W/m2
12:05 72.5 °F 57.4 °F 30.05 in Calm   6.0 mph 59 % 0.00 in 937.00 W/m2
12:10 72.8 °F 57.7 °F 30.05 in Calm   7.0 mph 59 % 0.00 in 939.00 W/m2
12:15 73.0 °F 57.8 °F 30.05 in NW 1.0 mph 5.0 mph 59 % 0.00 in 940.00 W/m2
12:20 73.3 °F 58.1 °F 30.05 in Calm   7.0 mph 59 % 0.00 in 946.00 W/m2
12:25 73.6 °F 58.4 °F 30.05 in Calm   5.0 mph 59 % 0.00 in 946.00 W/m2
12:30 73.9 °F 58.7 °F 30.05 in Calm   4.0 mph 59 % 0.00 in 947.00 W/m2
12:35 74.3 °F 59.1 °F 30.04 in West 2.0 mph 7.0 mph 59 % 0.00 in 949.00 W/m2
12:40 74.7 °F 59.0 °F 30.04 in Calm   9.0 mph 58 % 0.00 in 953.00 W/m2
12:45 75.0 °F 59.2 °F 30.04 in West 2.0 mph 7.0 mph 58 % 0.00 in 954.00 W/m2
12:50 75.4 °F 59.1 °F 30.04 in Calm   7.0 mph 57 % 0.00 in 954.00 W/m2
12:55 75.5 °F 59.2 °F 30.04 in WNW 3.0 mph 6.0 mph 57 % 0.00 in 956.00 W/m2
13:00 75.5 °F 59.7 °F 30.04 in WNW 6.0 mph 6.0 mph 58 % 0.00 in 954.00 W/m2
13:05 75.6 °F 59.3 °F 30.04 in SW 6.0 mph 10.0 mph 57 % 0.00 in 951.00 W/m2
13:10 75.8 °F 60.0 °F 30.04 in Calm   7.0 mph 58 % 0.00 in 951.00 W/m2
13:15 75.8 °F 59.0 °F 30.04 in Calm   6.0 mph 56 % 0.00 in 951.00 W/m2
13:20 75.6 °F 58.8 °F 30.04 in Calm   1.0 mph 56 % 0.00 in 951.00 W/m2
13:25 75.3 °F 59.0 °F 30.04 in WNW 3.0 mph 8.0 mph 57 % 0.00 in 946.00 W/m2
13:30 75.2 °F 58.4 °F 30.04 in Calm   8.0 mph 56 % 0.00 in 946.00 W/m2
13:35 75.4 °F 59.1 °F 30.03 in WSW 8.0 mph 8.0 mph 57 % 0.00 in 942.00 W/m2
13:40 75.6 °F 58.8 °F 30.03 in Calm   7.0 mph 56 % 0.00 in 944.00 W/m2
13:45 75.7 °F 58.4 °F 30.03 in WSW 9.0 mph 9.0 mph 55 % 0.00 in 937.00 W/m2
13:50 75.8 °F 58.5 °F 30.03 in Calm   6.0 mph 55 % 0.00 in 933.00 W/m2
13:55 76.0 °F 59.2 °F 30.03 in West 5.0 mph 5.0 mph 56 % 0.00 in 926.00 W/m2
13:58 76.0 °F 59.2 °F 30.03 in WNW 1.0 mph 1.0 mph 56 % 0.00 in 925.00 W/m2
14:03 76.2 °F 58.9 °F 30.03 in Calm   6.0 mph 55 % 0.00 in 918.00 W/m2
14:08 76.6 °F 59.8 °F 30.03 in Calm   7.0 mph 56 % 0.00 in 912.00 W/m2
14:18 76.5 °F 59.2 °F 30.03 in Calm     55 % 0.00 in 900.00 W/m2
14:23 76.5 °F 59.7 °F 30.03 in West 4.0 mph 4.0 mph 56 % 0.00 in 893.00 W/m2
14:29 76.6 °F 59.2 °F 30.02 in Calm   1.0 mph 55 % 0.00 in 888.00 W/m2
14:34 76.7 °F 58.8 °F 30.02 in West 1.0 mph 4.0 mph 54 % 0.00 in 886.00 W/m2
14:39 76.8 °F 58.4 °F 30.02 in Calm   11.0 mph 53 % 0.00 in 872.00 W/m2
14:44 76.7 °F 57.8 °F 30.02 in Calm   4.0 mph 52 % 0.00 in 867.00 W/m2
14:49 76.5 °F 58.1 °F 30.02 in Calm   7.0 mph 53 % 0.00 in 858.00 W/m2
14:54 76.6 °F 58.7 °F 30.02 in WNW 7.0 mph 9.0 mph 54 % 0.00 in 847.00 W/m2
14:59 76.7 °F 58.3 °F 30.02 in Calm   7.0 mph 53 % 0.00 in 842.00 W/m2
15:04 76.9 °F 58.5 °F 30.02 in Calm   9.0 mph 53 % 0.00 in 835.00 W/m2
15:09 76.9 °F 58.5 °F 30.02 in Calm   3.0 mph 53 % 0.00 in 824.00 W/m2
15:14 76.9 °F 58.5 °F 30.02 in Calm   4.0 mph 53 % 0.00 in 812.00 W/m2
15:19 77.0 °F 58.0 °F 30.02 in Calm   2.0 mph 52 % 0.00 in 803.00 W/m2
15:24 76.9 °F 57.4 °F 30.02 in Calm   9.0 mph 51 % 0.00 in 793.00 W/m2
15:29 77.0 °F 57.5 °F 30.02 in Calm   5.0 mph 51 % 0.00 in 784.00 W/m2
15:34 76.9 °F 56.9 °F 30.02 in Calm   4.0 mph 50 % 0.00 in 770.00 W/m2
15:39 76.8 °F 56.8 °F 30.01 in Calm     50 % 0.00 in 761.00 W/m2
15:49 76.6 °F 57.1 °F 30.01 in NW 1.0 mph 1.0 mph 51 % 0.00 in 737.00 W/m2
15:54 76.5 °F 55.9 °F 30.01 in Calm   1.0 mph 49 % 0.00 in 724.00 W/m2
15:59 76.4 °F 56.4 °F 30.01 in West 1.0 mph 7.0 mph 50 % 0.00 in 710.00 W/m2
16:04 76.5 °F 56.5 °F 30.01 in Calm   1.0 mph 50 % 0.00 in 698.00 W/m2
16:09 76.6 °F 56.0 °F 30.01 in Calm   6.0 mph 49 % 0.00 in 687.00 W/m2
16:14 76.8 °F 56.2 °F 30.00 in West 7.0 mph 9.0 mph 49 % 0.00 in 670.00 W/m2
16:19 76.9 °F 56.9 °F 30.00 in Calm   4.0 mph 50 % 0.00 in 659.00 W/m2
16:24 77.1 °F 57.0 °F 30.00 in SW 5.0 mph 7.0 mph 50 % 0.00 in 643.00 W/m2
16:29 77.2 °F 57.1 °F 30.00 in Calm   9.0 mph 50 % 0.00 in 633.00 W/m2
16:34 77.2 °F 56.6 °F 30.00 in SW 4.0 mph 8.0 mph 49 % 0.00 in 615.00 W/m2
16:39 77.3 °F 56.7 °F 30.00 in Calm   5.0 mph 49 % 0.00 in 603.00 W/m2
16:44 77.3 °F 56.7 °F 30.00 in WSW 1.0 mph 3.0 mph 49 % 0.00 in 587.00 W/m2
16:49 77.3 °F 56.7 °F 30.00 in Calm   6.0 mph 49 % 0.00 in 571.00 W/m2
16:54 77.3 °F 57.2 °F 30.00 in West 4.0 mph 6.0 mph 50 % 0.00 in 559.00 W/m2
16:59 77.2 °F 57.1 °F 30.00 in Calm   1.0 mph 50 % 0.00 in 540.00 W/m2
17:04 77.1 °F 57.6 °F 29.99 in SW 5.0 mph 8.0 mph 51 % 0.00 in 527.00 W/m2
17:09 77.1 °F 57.6 °F 30.00 in Calm   8.0 mph 51 % 0.00 in 513.00 W/m2
17:14 77.0 °F 56.4 °F 29.99 in Calm   8.0 mph 49 % 0.00 in 497.00 W/m2
17:19 76.9 °F 56.9 °F 29.99 in West 5.0 mph 5.0 mph 50 % 0.00 in 482.00 W/m2
17:24 76.8 °F 56.8 °F 29.99 in Calm   6.0 mph 50 % 0.00 in 468.00 W/m2
17:34 76.6 °F 57.1 °F 29.99 in WSW 1.0 mph 3.0 mph 51 % 0.00 in 436.00 W/m2
17:39 76.5 °F 57.6 °F 29.99 in West 2.0 mph 8.0 mph 52 % 0.00 in 418.00 W/m2
17:44 76.4 °F 57.5 °F 29.99 in Calm   3.0 mph 52 % 0.00 in 403.00 W/m2
17:49 76.2 °F 57.3 °F 29.99 in Calm     52 % 0.00 in 388.00 W/m2
17:54 76.1 °F 57.2 °F 29.99 in Calm   1.0 mph 52 % 0.00 in 371.00 W/m2
17:59 76.0 °F 57.1 °F 29.99 in Calm   4.0 mph 52 % 0.00 in 355.00 W/m2
18:04 75.9 °F 57.0 °F 29.99 in Calm   4.0 mph 52 % 0.00 in 339.00 W/m2
18:09 75.9 °F 57.0 °F 29.98 in Calm   4.0 mph 52 % 0.00 in 323.00 W/m2
18:14 75.8 °F 56.9 °F 29.98 in West 2.0 mph 4.0 mph 52 % 0.00 in 306.00 W/m2
18:19 75.7 °F 56.8 °F 29.98 in West 2.0 mph 5.0 mph 52 % 0.00 in 292.00 W/m2
18:24 75.5 °F 56.7 °F 29.98 in Calm   4.0 mph 52 % 0.00 in 278.00 W/m2
18:29 75.5 °F 57.2 °F 29.98 in Calm   4.0 mph 53 % 0.00 in 262.00 W/m2
18:34 75.3 °F 57.0 °F 29.98 in Calm     53 % 0.00 in 244.00 W/m2
18:39 75.3 °F 57.5 °F 29.98 in Calm     54 % 0.00 in 229.00 W/m2
18:44 75.2 °F 57.4 °F 29.97 in Calm     54 % 0.00 in 213.00 W/m2
Juneau County Weather
Compliments of Weather Underground - 4.5 mb
 WU-history PHP script courtesy of   Juneau County Weather.
powered by Cumulus v1.9.3 (1059)
Ambient Weather VWS v14.00
Top Contact Website Map Copyright © 2007 - 2017 Foresthillweather.com Never base important decisions on this or any weather information obtained from the Internet